Location: Unspecified
(0.0000°N, 0.0000°E)
Time: 17:03:19
(UTC+00:00)

NRL PL152 - Visible Passes

Search period start: 13 May 2026 00:00
Search period end: 23 May 2026 00:00
Orbit: 892 x 906 km, 70.0° (Epoch: 13 May)

Date Brightness Start Highest point End Pass type
(mag) Time Alt. Az. Time Alt. Az. Time Alt. Az.
13 May 7.8 05:03:19 10° NNW 05:09:10 68° WSW 05:15:03 10° S visible
14 May 10.8 03:23:47 10° NE 03:26:13 13° ENE 03:28:39 10° E visible
14 May 8.0 05:05:44 10° NW 05:11:22 47° WSW 05:17:01 10° S visible
15 May 10.3 03:24:25 10° NNE 03:28:26 19° ENE 03:32:25 10° ESE visible
15 May 8.4 05:08:21 10° NW 05:13:33 32° WSW 05:18:47 10° SSW visible
16 May 9.7 03:25:44 10° NNE 03:30:38 27° ENE 03:35:31 10° SE visible
16 May 8.8 05:11:15 10° WNW 05:15:46 23° WSW 05:20:17 10° SSW visible
17 May 9.0 03:27:23 10° N 03:32:50 38° ENE 03:38:16 10° SE visible
17 May 9.2 05:14:35 10° WNW 05:17:58 16° WSW 05:21:23 10° SW visible
18 May 8.3 03:29:16 10° N 03:35:01 56° ENE 03:40:48 10° SSE visible
18 May 9.5 05:19:55 10° WSW 05:20:12 10° WSW 05:20:43 10° WSW visible
19 May 9.9 03:31:18 10° NNW 03:45:22 - SSE 03:32:17 15° NNW visible
